Regional Weather Roundup
Issued by NWS

Home | Current Version | Previous Version | Graphics & Text | Print | Product List | Glossary On
Versions: 1 2 3 4 5 6 7 8 9 10 11 12 13 14 15 16 17 18 19 20 21 22 23 24 25 26 27 28 29 30 31 32 33 34 35 36 37 38 39 40 41 42 43 44 45 46 47 48 49 50
000
ASUS45 KBOU 291407
RWRCO

WEATHER ROUNDUP FOR COLORADO
NATIONAL WEATHER SERVICE DENVER/BOULDER CO
800 AM MDT FRI AUG 29 2014

NOTE: "FAIR" INDICATES FEW OR NO CLOUDS BELOW 12000 FEET WITH NO
SIGNIFICANT WEATHER AND/OR OBSTRUCTIONS TO VISIBILITY.

COZ001>005-013-030-031-291500-
...NORTHWEST COLORADO...

CITY           SKY/WX    TMP DP  RH WIND       PRES   REMARKS
CRAIG          PTSUNNY   51  47  86 CALM      30.25R
HAYDEN         PTSUNNY   50  43  76 SE12      30.27R
MEEKER         SUNNY     50  46  86 NE6       30.27S
MOUNT WERNER   NOT AVBL
STEAMBOAT SPGS SUNNY     46  44  95 CALM      30.29S
WALDEN         MOSUNNY   43  41  93 CALM      30.34S
$$

COZ006>008-011-291500-
...WEST CENTRAL VALLEYS...

CITY           SKY/WX    TMP DP  RH WIND       PRES   REMARKS
GRAND JUNCTION MOSUNNY   60  50  69 S8        30.19R
MONTROSE       MOSUNNY   56  45  66 SE8       30.26S
EAGLE          MOSUNNY   45  45 100 CALM      30.35S
RIFLE          SUNNY     54  47  77 NE7       30.25S
DELTA          CLOUDY    58  49  73 NE5       30.24R
NUCLA          MOSUNNY   52  43  71 E6        30.29R
$$

COZ017>023-064>068-291500-
...SOUTHWEST COLORADO...

CITY           SKY/WX    TMP DP  RH WIND       PRES   REMARKS
DURANGO        SUNNY     48  38  68 CALM      30.26R
CORTEZ         SUNNY     50  44  80 CALM      30.24R
PAGOSA SPRINGS SUNNY     51  35  54 CALM      30.33R
TELLURIDE      SUNNY     45  37  76 E5        30.40S
WOLF CREEK PAS SUNNY     41  30  65 NE10      30.54S
$$

COZ009-010-012-014-032>034-037-058>063-291500-
...CENTRAL COLORADO...

CITY           SKY/WX    TMP DP  RH WIND       PRES   REMARKS
ASPEN          SUNNY     48  42  80 S5        30.35S
BUENA VISTA    SUNNY     48  39  71 CALM      30.35S
COPPER MTN     MOSUNNY   41  36  81 W14       30.56S
BERTHOUD PASS  FOG       34  34 100 NW16      30.57S VSB<1/4 WCI  23
COTTONWOOD PAS SUNNY     50  32  50 W9        30.44S
GUNNISON       SUNNY     41  36  81 CALM      30.41R
KREMMLING      FOG       41  39  93 CALM      30.37R VSB 1/4
LEADVILLE      SUNNY     44  37  76 NE3       30.45R
MONARCH PASS   SUNNY     37  32  81 CALM      30.65R
SALIDA         SUNNY     48  41  76 CALM      30.41S
SUNLIGHT       SUNNY     46  41  81 N3        30.52S
WILKERSON PASS NOT AVBL
$$

COZ069>075-291500-
...SAN LUIS VALLEY/SANGRE DE CRISTO MOUNTAINS...

CITY           SKY/WX    TMP DP  RH WIND       PRES   REMARKS
ALAMOSA        SUNNY     46  38  73 CALM      30.33R
LA VETA PASS   NOT AVBL
SAGUACHE       NOT AVBL
$$

COZ035-036-038>040-291500-
...NORTHERN COLORADO FRONT RANGE...

CITY           SKY/WX    TMP DP  RH WIND       PRES   REMARKS
DENVER INTL AP MOSUNNY   59  46  62 SW12      30.11R
DMNS CITY PARK   N/A     60  45  57 S5        30.11S
AURORA         MOSUNNY   61  45  56 SW7       30.14R
FRONT RANGE AP NOT AVBL
ERIE MUNI ARPT PTSUNNY   58  50  75 CALM      30.10R
BOULDER MUN AP SUNNY     68  43  40 S6        30.09S
CENTENNIAL     MOSUNNY   62  43  49 SW9       30.14S
BROOMFIELD     MOSUNNY   66  45  45 CALM      30.13S
FORT COLLINS   MOSUNNY   57  52  82 CALM      30.10S
LONGMONT       MOSUNNY   53  49  85 CALM      30.11R
$$

COZ041-046-047-076>085-087-088-291500-
...PIKES PEAK/PALMER DIVIDE AND SOUTHERN FOOTHILLS...

CITY           SKY/WX    TMP DP  RH WIND       PRES   REMARKS
COLO. SPRINGS  MOSUNNY   64  39  39 NW12      30.18S
A. F. ACADEMY  SUNNY     55  46  70 N7        30.19F
ELLICOTT       SUNNY     58  45  62 N3        30.16R
FALCON         SUNNY     63  37  38 NW10      30.22S
FORT CARSON    SUNNY     62  42  47 NW8       30.16R
LIMON          SUNNY     59  47  64 W10       30.11S
MONUMENT HILL  SUNNY     55  41  58 W8        30.21S
TRINIDAD       SUNNY     58  41  53 W14       30.17R
$$

COZ042>045-048>051-090-091-291500-
...NORTHEAST COLORADO...

CITY           SKY/WX    TMP DP  RH WIND       PRES   REMARKS
GREELEY ARPT   MOSUNNY   57  48  72 SW3       30.08S
AKRON          SUNNY     59  50  72 W14       30.05R
BURLINGTON     SUNNY     62  52  69 W5        30.03R
WRAY           NOT AVBL
STERLING       SUNNY     59  55  88 S5        30.02R
HOLYOKE        SUNNY     63  52  67 W7        29.99R
FORT MORGAN    SUNNY     55  51  89 W10       30.06S
$$

COZ086-089-092>099-291500-
...SOUTHEAST COLORADO...

CITY           SKY/WX    TMP DP  RH WIND       PRES   REMARKS
PUEBLO         SUNNY     60  48  64 CALM      30.11R
LA JUNTA       SUNNY     57  51  80 W17       30.06S
LAMAR          SUNNY     61  52  72 W9        30.02R
SPRINGFIELD      N/A     66  50  56 NW13      30.05S
$$


USA.gov is the U.S. government's official web portal to all federal, state and local government web resources and services.